Regional Weather Roundup
Issued by NWS

Home | Current Version | Previous Version | Graphics & Text | Print | Product List | Glossary On
Versions: 1 2 3 4 5 6 7 8 9 10 11 12 13 14 15 16 17 18 19 20 21 22 23 24 25 26 27 28 29 30 31 32 33 34 35 36 37 38 39 40 41 42 43 44 45 46 47 48 49 50
000
ASUS43 KMKX 270621
RWRWI

WISCONSIN REGIONAL WEATHER ROUNDUP
NATIONAL WEATHER SERVICE MILWAUKEE/SULLIVAN WI
100 AM CDT FRI MAY 27 2016

NOTE: "FAIR" INDICATES FEW OR NO CLOUDS BELOW 12,000 FEET WITH NO
SIGNIFICANT WEATHER AND/OR OBSTRUCTIONS TO VISIBILITY.

WIZ001-002-006>008-014>016-023>028-270700-
NORTHWEST WISCONSIN

CITY           SKY/WX    TMP DP  RH WIND       PRES   REMARKS
SUPERIOR ARPT  FOG       47  47 100 CALM      29.86S VSB<1/4
6HR MIN TEMP:  46; 6HR MAX TEMP:  48;

ASHLAND        PTCLDY    47  47 100 SW3       29.86R
6HR MIN TEMP:  47; 6HR MAX TEMP:  57;

HAYWARD        PTCLDY    54  51  90 CALM      29.87R
6HR MIN TEMP:  54; 6HR MAX TEMP:  77;

SIREN          CLOUDY    56  53  90 CALM      29.87R
6HR MIN TEMP:  56; 6HR MAX TEMP:  77;

CUMBERLAND     CLOUDY    59  55  88 CALM      29.87R
RICE LAKE      CLOUDY    60  57  90 CALM      29.88R
6HR MIN TEMP:  60; 6HR MAX TEMP:  77;

CHETEK         CLOUDY    58  57  95 NE3       29.86S
6HR MIN TEMP:  58; 6HR MAX TEMP:  76;

LADYSMITH      CLOUDY    59  56  88 CALM      29.89R
6HR MIN TEMP:  59; 6HR MAX TEMP:  76;

EAU CLAIRE     CLOUDY    62  57  83 CALM      29.85R
6HR MIN TEMP:  59; 6HR MAX TEMP:  77;

MENOMONIE      CLOUDY    61  55  79 CALM      29.86R
6HR MIN TEMP:  61; 6HR MAX TEMP:  78;

NEW RICHMOND   CLOUDY    63  53  70 CALM      29.86R
OSCEOLA        CLOUDY    61  60  99 NE3       29.86F
6HR MIN TEMP:  60; 6HR MAX TEMP:  76;

$$

WIZ003>005-009-010-017-018-270700-
NORTH CENTRAL WISCONSIN

CITY           SKY/WX    TMP DP  RH WIND       PRES   REMARKS
MANITOWISH WTR NOT AVBL
ARBOR VITAE    CLOUDY    59  57  93 CALM      29.89R
6HR MIN TEMP:  59; 6HR MAX TEMP:  73;

WOODRUFF       CLOUDY    59  57  93 CALM      29.89R
6HR MIN TEMP:  59; 6HR MAX TEMP:  73;

RHINELANDER    MOCLDY    60  56  86 W3        29.89R
6HR MIN TEMP:  56; 6HR MAX TEMP:  74;

EAGLE RIVER      N/A     58  58  97 CALM      29.88R
LAND O LAKES   FOG       56  56 100 CALM      29.89R VSB 3/4
6HR MIN TEMP:  56; 6HR MAX TEMP:  71;

PHILLIPS       CLOUDY    60  56  88 CALM      29.88R
6HR MIN TEMP:  59; 6HR MAX TEMP:  74;

TOMAHAWK       PTCLDY    55  54  95 CALM      29.89R
6HR MIN TEMP:  55; 6HR MAX TEMP:  73;

MEDFORD        CLOUDY    58  58  99 CALM      29.88R
6HR MIN TEMP:  56; 6HR MAX TEMP:  74;

MERRILL        CLOUDY    55  55 100 CALM      29.88S
$$

WIZ029-030-035-036-043>047-270700-
CENTRAL WISCONSIN

CITY           SKY/WX    TMP DP  RH WIND       PRES   REMARKS
WAUSAU         CLOUDY    61  58  90 E3        29.86R
6HR MIN TEMP:  61; 6HR MAX TEMP:  76;

MOSINEE        PTCLDY    57  55  94 CALM      29.89S
MARSHFIELD     CLOUDY    60  56  86 CALM      29.87S
6HR MIN TEMP:  58; 6HR MAX TEMP:  75;

STEVENS POINT  CLEAR     57  57 100 CALM      29.88S
6HR MIN TEMP:  55; 6HR MAX TEMP:  75;

WAUPACA        CLEAR     61  61  99 CALM      29.87F
6HR MIN TEMP:  61; 6HR MAX TEMP:  80; 6HR PCP:  0.01;

WAUTOMA        MOCLDY    59  58  96 CALM      29.89R
6HR MIN TEMP:  59; 6HR MAX TEMP:  79;

WISC RAPIDS    PTCLDY    59  56  89 CALM      29.89R
6HR MIN TEMP:  58; 6HR MAX TEMP:  78;

CAMP DOUGLAS   CLOUDY    59  57  94 CALM      29.87S
6HR MIN TEMP:  58; 6HR MAX TEMP:  76; 6HR PCP: TRACE;

$$

WIZ011>013-019>022-031-037>040-048>050-270700-
NORTHEAST WISCONSIN

CITY           SKY/WX    TMP DP  RH WIND       PRES   REMARKS
ANTIGO         PTCLDY    57  56  97 CALM      29.90R
6HR MIN TEMP:  56; 6HR MAX TEMP:  72;

SHAWANO        CLEAR     62  58  87 CALM      29.87R
6HR MIN TEMP:  60; 6HR MAX TEMP:  79;

OCONTO         CLEAR    N/A N/A N/A CALM      29.86R
STURGEON BAY   NOT AVBL
GREEN BAY      CLEAR     61  59  93 W3        29.86S
6HR MIN TEMP:  61; 6HR MAX TEMP:  80;

MANITOWOC      CLEAR     59  57  93 CALM      29.87S
6HR MIN TEMP:  58; 6HR MAX TEMP:  72;

APPLETON       CLEAR     64  55  72 SW3       29.86R
CLINTONVILLE   CLEAR     59  55  88 CALM      29.87R
OSHKOSH        PTCLDY    62  56  80 S7        29.87S
6HR MIN TEMP:  60; 6HR MAX TEMP:  79;

$$

WIZ032>034-041-042-053>061-270700-
SOUTHWEST WISCONSIN

CITY           SKY/WX    TMP DP  RH WIND       PRES   REMARKS
LA CROSSE      CLOUDY    65  60  84 SE5       29.85S
6HR MIN TEMP:  65; 6HR MAX TEMP:  79;

SPARTA         CLOUDY    59  58  96 CALM      29.88R
6HR MIN TEMP:  59; 6HR MAX TEMP:  78;

VIROQUA        CLOUDY    66  60  82 CALM      29.88S
6HR MIN TEMP:  65; 6HR MAX TEMP:  76;

BOSCOBEL       MOCLDY    64  63  96 CALM      29.87S
6HR MIN TEMP:  64; 6HR MAX TEMP:  80;

PRAIRIE DU CHI CLOUDY    66  61  84 CALM      29.86F
6HR MIN TEMP:  66; 6HR MAX TEMP:  78;

PLATTEVILLE    CLOUDY    68  58  70 CALM      29.86F
6HR MIN TEMP:  68; 6HR MAX TEMP:  80;

$$

WIZ056-057-062-063-064-067-068-270700-
SOUTH CENTRAL WISCONSIN

CITY           SKY/WX    TMP DP  RH WIND       PRES   REMARKS
REEDSBURG      CLOUDY    62  61  96 CALM      29.87F
6HR MIN TEMP:  62; 6HR MAX TEMP:  78;

BARABOO/DELLS  CLOUDY    64  58  82 CALM      29.87F
6HR MIN TEMP:  63; 6HR MAX TEMP:  78;

LONE ROCK      CLOUDY    64  60  87 CALM      29.86F
6HR MIN TEMP:  64; 6HR MAX TEMP:  81;

MINERAL POINT  CLOUDY    68  57  68 CALM      29.87F
MADISON        CLOUDY    63  58  83 CALM      29.86F
6HR MIN TEMP:  62; 6HR MAX TEMP:  80;

MIDDLETON      CLOUDY    64  58  82 CALM      29.87F
6HR MIN TEMP:  63; 6HR MAX TEMP:  78;

WATERTOWN      CLOUDY    63  62  96 CALM      29.86F
6HR MIN TEMP:  61; 6HR MAX TEMP:  81;

MONROE         CLOUDY    70  54  56 CALM      29.87F
JANESVILLE     CLOUDY    66  63  88 CALM      29.86F
$$

WIZ051-052-058>065-066-070>072-270700-
SOUTHEAST WISCONSIN

CITY           SKY/WX    TMP DP  RH WIND       PRES   REMARKS
MILWAUKEE      MOCLDY    66  60  81 CALM      29.86F
6HR MIN TEMP:  64; 6HR MAX TEMP:  83;

WAUKESHA       PTCLDY    63  57  82 CALM      29.88F
MILWAUKEE/TIMM MOCLDY    64  55  72 CALM      29.87F
RACINE         MOCLDY    69  59  70 CALM      29.88F
6HR MIN TEMP:  66; 6HR MAX TEMP:  76;

BURLINGTON     PTCLDY    62  60  93 CALM      29.87S
6HR MIN TEMP:  62; 6HR MAX TEMP:  80;

KENOSHA        MOCLDY    66  62  87 CALM      29.87F
6HR MIN TEMP:  65; 6HR MAX TEMP:  80;

FOND DU LAC    MOCLDY    60  57  89 S5        29.87S
6HR MIN TEMP:  60; 6HR MAX TEMP:  80;

SHEBOYGAN      PTCLDY    59  57  93 CALM      29.87S
6HR MIN TEMP:  59; 6HR MAX TEMP:  80;

WEST BEND      PTCLDY    61  59  94 CALM      29.88S
JUNEAU         CLOUDY    65  62  89 CALM      29.88F
6HR MIN TEMP:  64; 6HR MAX TEMP:  79;

$$

LSZ147-162-270700-
LAKE SUPERIOR

STATION/POSITION TIME  TEMP    WIND        PRES    WAVE
                       AIR SEA DIR/SP/G            HT/PER
                 (UTC) (F)     (DEG/KT/KT) (MB)    (FT/S)
W MID LAKE BUOY  0550   40 38  290/  4/  4 1011.1R   1/ 5
DEVILS ISLAND    0600   45        CALM     1011.3R
PORT WING        0420   44     230/  2/  7 1011.2
SAXON HARBOR     0540   49     310/  1/  3 1010.5R
$$

LMZ867-665-643>646-270700-
LAKE MICHIGAN

STATION/POSITION TIME  TEMP    WIND        PRES    WAVE
                       AIR SEA DIR/SP/G            HT/PER
                 (UTC) (F)     (DEG/KT/KT) (MB)    (FT/S)
CHAMBERS ISLAND  0500   60      CALM  /  2 1010.8F
N MID LAKE BUOY  0550   47 45  120/  6/  6 1011.5F   2/ 5
NORTHPORT PIER   0500   53     130/  4/  5 1011.2F
SISTER BAY       0520   62     170/  7/  9   N/A
ALGOMA LAKESHORE 0517             CALM       N/A
KEWAUNEE LAC1F1C2F2C3F3C4F4C5F5C6F6C7F7C8M1C9M2Ca!



USA.gov is the U.S. government's official web portal to all federal, state and local government web resources and services.